Location: Treviso
(45.6669°N, 12.2430°E)
Time: 06:08:09
(UTC+02:00)

ISS - Pass Details

Date: 23 May 2018
Orbit: 402 x 407 km, 51.6° (Epoch: 24 May)

Event Time Altitude Azimuth Distance (km) Brightness Sun altitude
Rises 02:12:46 0° 298° (WNW) 2,321 0.2 -22.2°
Reaches altitude 10° 02:14:55 10° 305° (NW) 1,459 -0.8 -22.1°
Maximum altitude 02:18:03 43° 19° (NNE) 580 -2.6 -21.9°
Drops below altitude 10° 02:21:11 10° 93° (E) 1,454 -0.8 -21.7°
Sets 02:23:19 0° 100° (E) 2,312 0.1 -21.6°
